Home   Weather   Panipat   Past weeks

Flag for India Past Weather in Panipat, Haryana, India — Yesterday and Last 2 Weeks

Now
59 °F

Passing clouds.


Feels Like: 59 °F
Forecast: 50 / 72 °F
Wind: No wind

Location: New Delhi Palam Airport

Current Time: Jan 21, 2017 at 9:04:44 pm

Latest Report: Jan 21, 2017 at 8:00 pm


Visibility: 1 mi

Pressure: 30.12 "Hg

Humidity: 63%

Dew Point: 46 °F

Location of PanipatLocation

Past Weather in Panipat — Graph

°F

Panipat Temperature Yesterday

Maximum temperature yesterday: 66 °F (at 1:30 pm)
Minimum temperature yesterday: 43 °F (at 4:00 am)
Average temperature yesterday: 52 °F

High & Low Weather Summary for the Past Weeks

 TemperatureHumidityPressure
High73 °F (Jan 15, 2:00 pm)100% (Jan 7, 6:30 am)30.27 "Hg (Jan 7, 6:30 am)
Low39 °F (Jan 11, 8:00 am)20% (Jan 15, 4:30 pm)29.83 "Hg (Jan 7, 4:30 am)
Average54 °F73%30.05 "Hg
* Reported Jan 6 7:30 pm — Jan 21 7:30 pm, Panipat, Weather by CustomWeather, © 2017

Note: Actual official high and low records may vary slightly from our data, if they occured in-between our weather recording intervals... More about our weather records

Advertising

Panipat Weather History for the Previous 24 Hours

Scroll right to see more
 ConditionsComfort  
Time TempWeatherWind HumidityBarometerVisibility
7:30 pm
Sat, Jan 21
61 °FPassing clouds.No wind63%30.12 "Hg1 mi
7:00 pm61 °FPassing clouds.No wind63%30.12 "Hg1 mi
6:30 pm61 °FPassing clouds.3 mph63%30.12 "Hg1 mi
6:00 pm61 °FScattered clouds.3 mph59%30.12 "Hg1 mi
5:30 pm63 °FScattered clouds.5 mph52%29.83 "Hg1 mi
5:00 pm64 °FScattered clouds.6 mph40%30.09 "Hg1 mi
4:30 pm64 °FScattered clouds.6 mph34%30.09 "Hg1 mi
4:00 pm66 °FScattered clouds.6 mph30%30.09 "Hg1 mi
3:30 pm66 °FScattered clouds.6 mph30%30.09 "Hg1 mi
3:00 pm66 °FScattered clouds.6 mph30%30.09 "Hg1 mi
2:30 pm64 °FScattered clouds.6 mph43%30.12 "Hg1 mi
2:00 pm66 °FScattered clouds.6 mph40%30.12 "Hg1 mi
1:30 pm64 °FScattered clouds.5 mph49%30.12 "Hg1 mi
1:00 pm64 °FScattered clouds.5 mph49%30.15 "Hg1 mi
12:30 pm64 °FScattered clouds.5 mph49%30.18 "Hg1 mi
12:00 pm63 °FScattered clouds.5 mph59%30.18 "Hg1 mi
11:00 am55 °FPassing clouds.6 mph67%30.18 "Hg1 mi
10:30 am54 °FPassing clouds.6 mph72%30.18 "Hg1 mi
10:00 am52 °FPassing clouds.6 mph72%30.18 "Hg1 mi
9:30 am46 °FFog.6 mph87%30.15 "Hg1 mi
9:00 am46 °FFog.5 mph87%30.15 "Hg1 mi
8:30 am45 °FFog.5 mph87%30.12 "Hg0 mi
8:00 am43 °FFog.3 mph93%30.12 "Hg0 mi
7:30 am41 °FFog.5 mph100%30.12 "Hg0 mi
7:00 am41 °FFog.5 mph100%30.09 "Hg0 mi
6:30 am43 °FFog.3 mph100%30.09 "Hg0 mi
6:00 am45 °FFog.3 mph93%30.09 "Hg0 mi
5:30 am45 °FFog.3 mph93%30.09 "Hg0 mi
5:00 am45 °FFog.3 mph100%30.09 "Hg0 mi
4:00 am46 °FFog.3 mph93%30.09 "Hg0 mi
3:30 am46 °FFog.3 mph93%30.09 "Hg1 mi
3:00 am46 °FFog.3 mph93%30.09 "Hg1 mi
2:30 am46 °FFog.3 mph93%30.09 "Hg1 mi
2:00 am46 °FFog.3 mph93%30.12 "Hg1 mi
1:30 am46 °FFog.3 mph93%30.12 "Hg1 mi
1:00 am46 °FFog.5 mph93%30.12 "Hg1 mi
12:30 am46 °FFog.3 mph93%30.12 "Hg1 mi
12:00 am46 °FFog.3 mph93%30.12 "Hg1 mi
11:30 pm
Fri, Jan 20
46 °FFog.3 mph93%30.12 "Hg1 mi
11:00 pm48 °FFog.3 mph87%30.12 "Hg1 mi
10:30 pm48 °FFog.No wind87%30.15 "Hg1 mi
10:00 pm50 °FFog.3 mph88%30.15 "Hg1 mi
9:30 pm50 °FFog.5 mph88%30.15 "Hg1 mi
9:00 pm52 °FFog.3 mph77%30.15 "Hg1 mi
Weather by CustomWeather, © 2017

See weather overviewHow to use our weather pages